| time (UTC) | temp F | wind direction | speed knots | gust knots | rain 1hr in | rain 24hr in | rain mn in | humidity % | barometer mb |
| 20260506184914 | 46 | 255 | 6.1 | 7.8 | 0.03 | 0.40 | 0.40 | 100 | 1010.2 |
| 20260506184418 | 46 | 222 | 6.1 | 9.6 | 0.04 | 0.40 | 0.40 | 100 | 1010.2 |
| 20260506184414 | 46 | 222 | 6.1 | 9.6 | 0.04 | 0.40 | 0.40 | 100 | 1010.2 |
| 20260506183914 | 46 | 210 | 5.2 | 8.7 | 0.05 | 0.40 | 0.40 | 100 | 1010.2 |
| 20260506183414 | 47 | 230 | 2.6 | 7.8 | 0.05 | 0.40 | 0.40 | 100 | 1009.9 |
| 20260506182914 | 47 | 251 | 6.1 | 8.7 | 0.06 | 0.40 | 0.40 | 100 | 1010.1 |
| 20260506182414 | 47 | 241 | 5.2 | 10.4 | 0.06 | 0.40 | 0.40 | 100 | 1010.1 |
| 20260506181914 | 47 | 223 | 2.6 | 11.3 | 0.06 | 0.40 | 0.40 | 100 | 1010.0 |
| 20260506181418 | 47 | 241 | 6.1 | 13.9 | 0.05 | 0.39 | 0.39 | 100 | 1010.0 |
| 20260506181414 | 47 | 241 | 6.1 | 13.9 | 0.05 | 0.39 | 0.39 | 100 | 1010.0 |
| 20260506180914 | 47 | 226 | 7.8 | 9.6 | 0.04 | 0.38 | 0.38 | 100 | 1009.9 |
| 20260506180414 | 47 | 206 | 7.8 | 12.2 | 0.04 | 0.38 | 0.38 | 100 | 1009.8 |
| 20260506175919 | 48 | 257 | 12.2 | 12.2 | 0.03 | 0.37 | 0.37 | 100 | 1009.6 |
| 20260506175914 | 48 | 257 | 12.2 | 12.2 | 0.03 | 0.37 | 0.37 | 100 | 1009.6 |
| 20260506175414 | 48 | 192 | 0.0 | 12.2 | 0.03 | 0.37 | 0.37 | 100 | 1009.6 |
| 20260506174914 | 48 | 250 | 4.3 | 11.3 | 0.03 | 0.37 | 0.37 | 99 | 1009.6 |
| 20260506174419 | 49 | 265 | 5.2 | 19.1 | 0.02 | 0.36 | 0.36 | 98 | 1009.4 |
| 20260506174414 | 49 | 265 | 5.2 | 19.1 | 0.02 | 0.36 | 0.36 | 98 | 1009.4 |
| 20260506173914 | 49 | 226 | 6.1 | 8.7 | 0.01 | 0.35 | 0.35 | 98 | 1009.3 |
| 20260506173414 | 49 | 198 | 5.2 | 7.8 | 0.01 | 0.35 | 0.35 | 98 | 1009.2 |
| 20260506172918 | 49 | 163 | 2.6 | 8.7 | 0.01 | 0.34 | 0.34 | 98 | 1009.1 |
| 20260506172914 | 49 | 163 | 2.6 | 8.7 | 0.01 | 0.34 | 0.34 | 98 | 1009.1 |
| 20260506172414 | 49 | 265 | 4.3 | 7.0 | 0.01 | 0.34 | 0.34 | 98 | 1009.1 |
| 20260506171914 | 49 | 130 | 0.0 | 9.6 | 0.01 | 0.34 | 0.34 | 97 | 1009.1 |
| 20260506171417 | 49 | 246 | 3.5 | 7.8 | 0.01 | 0.34 | 0.34 | 97 | 1009.0 |
| 20260506171414 | 49 | 246 | 3.5 | 7.8 | 0.01 | 0.34 | 0.34 | 97 | 1009.0 |
| 20260506170914 | 49 | 232 | 6.1 | 8.7 | 0.01 | 0.34 | 0.34 | 97 | 1009.0 |
| 20260506170414 | 49 | 222 | 7.8 | 9.6 | 0.01 | 0.34 | 0.34 | 97 | 1008.9 |
| 20260506165914 | 49 | 247 | 8.7 | 9.6 | 0.01 | 0.34 | 0.34 | 97 | 1008.9 |
| 20260506165414 | 49 | 258 | 5.2 | 10.4 | 0.02 | 0.34 | 0.34 | 97 | 1008.9 |
| 20260506164914 | 49 | 233 | 7.8 | 11.3 | 0.02 | 0.34 | 0.34 | 97 | 1009.0 |
| 20260506164414 | 49 | 208 | 7.0 | 9.6 | 0.02 | 0.34 | 0.34 | 98 | 1009.0 |
| 20260506163914 | 49 | 274 | 6.1 | 9.6 | 0.02 | 0.34 | 0.34 | 98 | 1009.0 |
| 20260506163414 | 49 | 250 | 7.8 | 10.4 | 0.03 | 0.34 | 0.34 | 97 | 1009.0 |
| 20260506162914 | 49 | 172 | 3.5 | 10.4 | 0.02 | 0.33 | 0.33 | 97 | 1009.1 |
| 20260506162414 | 49 | 229 | 7.8 | 8.7 | 0.02 | 0.33 | 0.33 | 97 | 1009.1 |
| 20260506161915 | 49 | 234 | 4.3 | 7.8 | 0.03 | 0.33 | 0.33 | 97 | 1009.0 |
| 20260506161417 | 49 | 233 | 6.1 | 7.8 | 0.03 | 0.33 | 0.33 | 97 | 1009.1 |
| 20260506161414 | 49 | 233 | 6.1 | 7.8 | 0.03 | 0.33 | 0.33 | 97 | 1009.1 |
| 20260506160915 | 49 | 195 | 3.5 | 8.7 | 0.03 | 0.33 | 0.33 | 97 | 1009.1 |
| 20260506160414 | 49 | 247 | 4.3 | 9.6 | 0.03 | 0.33 | 0.33 | 97 | 1009.1 |
| 20260506155919 | 49 | 289 | 3.5 | 9.6 | 0.04 | 0.33 | 0.33 | 97 | 1009.0 |
| 20260506155915 | 49 | 289 | 3.5 | 9.6 | 0.04 | 0.33 | 0.33 | 97 | 1009.0 |
| 20260506155415 | 49 | 225 | 3.5 | 9.6 | 0.03 | 0.32 | 0.32 | 97 | 1009.0 |
| 20260506154915 | 49 | 225 | 7.0 | 7.8 | 0.03 | 0.32 | 0.32 | 96 | 1009.0 |
| 20260506154418 | 49 | 261 | 0.9 | 10.4 | 0.03 | 0.32 | 0.32 | 96 | 1009.0 |
| 20260506154415 | 49 | 261 | 0.9 | 10.4 | 0.03 | 0.32 | 0.32 | 96 | 1009.0 |
| 20260506153915 | 49 | 239 | 8.7 | 9.6 | 0.03 | 0.32 | 0.32 | 96 | 1009.0 |
| 20260506153415 | 49 | 258 | 6.1 | 8.7 | 0.02 | 0.31 | 0.31 | 96 | 1009.0 |
| 20260506152915 | 49 | 275 | 5.2 | 9.6 | 0.02 | 0.31 | 0.31 | 95 | 1009.0 |
| 20260506152415 | 49 | 229 | 4.3 | 12.2 | 0.02 | 0.38 | 0.31 | 95 | 1009.0 |
| 20260506151915 | 49 | 217 | 7.8 | 9.6 | 0.01 | 0.37 | 0.30 | 95 | 1008.9 |
| 20260506151419 | 49 | 220 | 5.2 | 10.4 | 0.01 | 0.37 | 0.30 | 95 | 1008.9 |
| 20260506151415 | 49 | 220 | 5.2 | 10.4 | 0.01 | 0.37 | 0.30 | 95 | 1008.9 |
| 20260506150915 | 49 | 191 | 4.3 | 11.3 | 0.01 | 0.37 | 0.30 | 94 | 1008.9 |
| 20260506150415 | 49 | 222 | 3.5 | 14.8 | 0.01 | 0.37 | 0.30 | 93 | 1008.8 |
| 20260506145917 | 49 | 154 | 7.0 | 13.9 | 0.00 | 0.36 | 0.29 | 94 | 1008.8 |
| 20260506145915 | 49 | 154 | 7.0 | 13.9 | 0.00 | 0.36 | 0.29 | 94 | 1008.8 |
| 20260506145415 | 50 | 239 | 6.1 | 15.6 | 0.00 | 0.36 | 0.29 | 95 | 1008.9 |
| 20260506144915 | 50 | 222 | 2.6 | 11.3 | 0.00 | 0.36 | 0.29 | 94 | 1008.8 |
| 20260506144418 | 50 | 260 | 2.6 | 11.3 | 0.00 | 0.36 | 0.29 | 94 | 1008.8 |
| 20260506144415 | 50 | 260 | 2.6 | 11.3 | 0.00 | 0.36 | 0.29 | 94 | 1008.8 |
| 20260506143915 | 50 | 209 | 6.1 | 12.2 | 0.00 | 0.36 | 0.29 | 93 | 1008.8 |
| 20260506143415 | 50 | 261 | 0.9 | 12.2 | 0.00 | 0.36 | 0.29 | 95 | 1008.8 |
| 20260506142915 | 50 | 254 | 7.0 | 13.9 | 0.01 | 0.36 | 0.29 | 94 | 1008.8 |
| 20260506142415 | 50 | 163 | 7.0 | 9.6 | 0.01 | 0.36 | 0.29 | 95 | 1008.8 |
| 20260506141915 | 50 | 209 | 7.8 | 13.9 | 0.01 | 0.36 | 0.29 | 95 | 1008.8 |
| 20260506141417 | 50 | 257 | 7.0 | 12.2 | 0.01 | 0.36 | 0.29 | 95 | 1008.9 |
| 20260506141415 | 50 | 257 | 7.0 | 12.2 | 0.01 | 0.36 | 0.29 | 95 | 1008.9 |
| 20260506140915 | 50 | 247 | 5.2 | 12.2 | 0.01 | 0.36 | 0.29 | 94 | 1008.8 |
| 20260506140415 | 50 | 194 | 6.1 | 14.8 | 0.01 | 0.36 | 0.29 | 94 | 1008.8 |
| 20260506135915 | 50 | 247 | 7.8 | 14.8 | 0.01 | 0.36 | 0.29 | 95 | 1008.7 |
| 20260506135415 | 50 | 239 | 7.8 | 13.0 | 0.01 | 0.36 | 0.29 | 96 | 1008.8 |
| 20260506134915 | 50 | 125 | 7.0 | 13.0 | 0.01 | 0.36 | 0.29 | 97 | 1008.8 |
| 20260506134415 | 50 | 187 | 7.0 | 11.3 | 0.01 | 0.36 | 0.29 | 97 | 1008.8 |
| 20260506133915 | 50 | 227 | 6.1 | 12.2 | 0.01 | 0.36 | 0.29 | 97 | 1008.9 |
| 20260506133415 | 50 | 250 | 4.3 | 11.3 | 0.01 | 0.36 | 0.29 | 96 | 1008.8 |
| 20260506132918 | 50 | 262 | 5.2 | 13.9 | 0.00 | 0.35 | 0.28 | 95 | 1008.9 |
| 20260506132915 | 50 | 262 | 5.2 | 13.9 | 0.00 | 0.35 | 0.28 | 95 | 1008.9 |
| 20260506132415 | 50 | 246 | 8.7 | 13.0 | 0.00 | 0.35 | 0.28 | 95 | 1008.8 |
| 20260506131915 | 51 | 217 | 6.1 | 14.8 | 0.00 | 0.35 | 0.28 | 93 | 1008.7 |
| 20260506131415 | 52 | 230 | 7.0 | 9.6 | 0.00 | 0.35 | 0.28 | 95 | 1008.7 |
| 20260506130915 | 52 | 265 | 5.2 | 10.4 | 0.00 | 0.35 | 0.28 | 95 | 1008.6 |
| 20260506130415 | 51 | 206 | 7.8 | 9.6 | 0.00 | 0.35 | 0.28 | 95 | 1008.6 |
| 20260506125915 | 51 | 219 | 2.6 | 10.4 | 0.00 | 0.35 | 0.28 | 95 | 1008.7 |
| 20260506125415 | 51 | 241 | 7.8 | 10.4 | 0.01 | 0.35 | 0.28 | 95 | 1008.7 |
| 20260506124915 | 51 | 270 | 4.3 | 7.8 | 0.01 | 0.35 | 0.28 | 95 | 1008.6 |
| 20260506124419 | 51 | 268 | 4.3 | 10.4 | 0.02 | 0.35 | 0.28 | 95 | 1008.6 |
| 20260506124415 | 51 | 268 | 4.3 | 10.4 | 0.02 | 0.35 | 0.28 | 95 | 1008.6 |
| 20260506123915 | 51 | 213 | 7.8 | 7.8 | 0.02 | 0.35 | 0.28 | 95 | 1008.7 |
| 20260506123415 | 51 | 254 | 2.6 | 10.4 | 0.03 | 0.35 | 0.28 | 95 | 1008.7 |
| 20260506122918 | 52 | 194 | 6.1 | 8.7 | 0.04 | 0.40 | 0.28 | 97 | 1008.6 |
| 20260506122915 | 52 | 194 | 6.1 | 8.7 | 0.04 | 0.40 | 0.28 | 97 | 1008.6 |
| 20260506122415 | 51 | 240 | 2.6 | 8.7 | 0.04 | 0.40 | 0.28 | 97 | 1008.5 |
| 20260506121915 | 51 | 267 | 7.0 | 7.8 | 0.05 | 0.40 | 0.28 | 98 | 1008.4 |
| 20260506121419 | 51 | 244 | 6.1 | 7.8 | 0.06 | 0.40 | 0.28 | 99 | 1008.5 |
| 20260506121415 | 51 | 244 | 6.1 | 7.8 | 0.06 | 0.40 | 0.28 | 99 | 1008.5 |
| 20260506120915 | 50 | 237 | 4.3 | 7.8 | 0.07 | 0.40 | 0.28 | 100 | 1008.5 |
| 20260506120415 | 50 | 178 | 5.2 | 9.6 | 0.08 | 0.40 | 0.28 | 100 | 1008.5 |
| 20260506115919 | 50 | 237 | 7.0 | 8.7 | 0.09 | 0.40 | 0.28 | 100 | 1008.6 |
| 20260506115915 | 50 | 237 | 7.0 | 8.7 | 0.09 | 0.40 | 0.28 | 100 | 1008.6 |
| 20260506115415 | 50 | 168 | 2.6 | 5.2 | 0.09 | 0.39 | 0.27 | 100 | 1008.7 |
| 20260506114915 | 49 | 243 | 3.5 | 9.6 | 0.10 | 0.39 | 0.27 | 100 | 1008.7 |
| 20260506114419 | 49 | 181 | 6.1 | 8.7 | 0.10 | 0.38 | 0.26 | 100 | 1008.7 |
| 20260506114415 | 49 | 181 | 6.1 | 8.7 | 0.10 | 0.38 | 0.26 | 100 | 1008.7 |
| 20260506113915 | 49 | 220 | 4.3 | 7.0 | 0.11 | 0.38 | 0.26 | 100 | 1008.7 |
| 20260506113415 | 49 | 229 | 6.1 | 7.8 | 0.11 | 0.37 | 0.25 | 100 | 1008.7 |
| 20260506112919 | 49 | 265 | 5.2 | 7.8 | 0.11 | 0.41 | 0.24 | 100 | 1008.7 |
| 20260506112915 | 49 | 265 | 5.2 | 7.8 | 0.11 | 0.41 | 0.24 | 100 | 1008.7 |
| 20260506112415 | 49 | 254 | 3.5 | 7.0 | 0.12 | 0.41 | 0.24 | 100 | 1008.8 |
| 20260506111915 | 49 | 222 | 4.3 | 7.8 | 0.13 | 0.40 | 0.23 | 100 | 1008.8 |
| 20260506111418 | 49 | 262 | 4.3 | 6.1 | 0.13 | 0.39 | 0.22 | 100 | 1008.8 |
| 20260506111415 | 49 | 262 | 4.3 | 6.1 | 0.13 | 0.39 | 0.22 | 100 | 1008.8 |
| 20260506110915 | 49 | 198 | 2.6 | 9.6 | 0.13 | 0.38 | 0.21 | 100 | 1008.8 |
| 20260506110415 | 49 | 243 | 7.8 | 8.7 | 0.14 | 0.37 | 0.20 | 100 | 1008.8 |
| 20260506105915 | 49 | 243 | 7.8 | 10.4 | 0.15 | 0.36 | 0.19 | 100 | 1008.8 |
| 20260506105415 | 49 | 257 | 4.3 | 12.2 | 0.15 | 0.35 | 0.18 | 100 | 1008.8 |
| 20260506104915 | 49 | 213 | 7.8 | 12.2 | 0.15 | 0.34 | 0.17 | 100 | 1008.8 |
| 20260506104419 | 50 | 251 | 10.4 | 10.4 | 0.15 | 0.33 | 0.16 | 100 | 1008.7 |
| 20260506104415 | 50 | 251 | 10.4 | 10.4 | 0.15 | 0.33 | 0.16 | 100 | 1008.7 |
| 20260506103915 | 50 | 232 | 6.1 | 10.4 | 0.14 | 0.32 | 0.15 | 100 | 1008.7 |
| 20260506103415 | 50 | 239 | 7.8 | 12.2 | 0.14 | 0.31 | 0.14 | 100 | 1008.6 |
| 20260506102918 | 50 | 258 | 7.8 | 12.2 | 0.13 | 0.31 | 0.13 | 100 | 1008.5 |
| 20260506102915 | 50 | 258 | 7.8 | 12.2 | 0.13 | 0.31 | 0.13 | 100 | 1008.5 |
| 20260506102415 | 50 | 236 | 7.0 | 11.3 | 0.12 | 0.30 | 0.12 | 100 | 1008.5 |
| 20260506101915 | 50 | 210 | 10.4 | 12.2 | 0.10 | 0.28 | 0.10 | 100 | 1008.4 |
| 20260506101419 | 50 | 217 | 3.5 | 13.9 | 0.09 | 0.27 | 0.09 | 99 | 1008.2 |
| 20260506101415 | 50 | 217 | 3.5 | 13.9 | 0.09 | 0.27 | 0.09 | 99 | 1008.2 |
| 20260506100916 | 50 | 247 | 11.3 | 14.8 | 0.08 | 0.26 | 0.08 | 98 | 1008.2 |
| 20260506100415 | 51 | 201 | 9.6 | 13.0 | 0.06 | 0.24 | 0.06 | 98 | 1008.0 |
| 20260506095918 | 51 | 274 | 3.5 | 10.4 | 0.04 | 0.22 | 0.04 | 97 | 1007.8 |
| 20260506095915 | 51 | 274 | 3.5 | 10.4 | 0.04 | 0.22 | 0.04 | 97 | 1007.8 |
| 20260506095415 | 51 | 240 | 3.5 | 6.1 | 0.03 | 0.21 | 0.03 | 97 | 1007.8 |
| 20260506094915 | 51 | 247 | 3.5 | 8.7 | 0.02 | 0.20 | 0.02 | 97 | 1007.7 |
| 20260506094418 | 52 | 232 | 7.0 | 7.8 | 0.01 | 0.19 | 0.01 | 96 | 1007.7 |
| 20260506094415 | 52 | 232 | 7.0 | 7.8 | 0.01 | 0.19 | 0.01 | 96 | 1007.7 |
| 20260506093915 | 52 | 205 | 3.5 | 6.1 | 0.01 | 0.19 | 0.01 | 95 | 1007.6 |
| 20260506093415 | 52 | 246 | 0.0 | 7.0 | 0.00 | 0.18 | 0.00 | 93 | 1007.5 |
| 20260506092918 | 52 | 265 | 6.1 | 6.1 | 0.00 | 0.18 | 0.00 | 92 | 1007.4 |
| 20260506092915 | 52 | 265 | 6.1 | 6.1 | 0.00 | 0.18 | 0.00 | 92 | 1007.4 |
| 20260506092415 | 52 | 253 | 3.5 | 7.0 | 0.00 | 0.18 | 0.00 | 91 | 1007.4 |
| 20260506091915 | 52 | 244 | 2.6 | 7.0 | 0.00 | 0.18 | 0.00 | 89 | 1007.4 |
| 20260506091419 | 52 | 243 | 1.7 | 6.1 | 0.00 | 0.18 | 0.00 | 88 | 1007.3 |
| 20260506091415 | 52 | 243 | 1.7 | 6.1 | 0.00 | 0.18 | 0.00 | 88 | 1007.3 |
| 20260506090915 | 52 | 255 | 5.2 | 7.0 | 0.00 | 0.18 | 0.00 | 87 | 1007.3 |
| 20260506090415 | 52 | 257 | 3.5 | 7.8 | 0.00 | 0.18 | 0.00 | 86 | 1007.2 |
| 20260506085918 | 53 | 264 | 7.0 | 7.0 | 0.00 | 0.18 | 0.00 | 86 | 1007.2 |
| 20260506085915 | 53 | 264 | 7.0 | 7.0 | 0.00 | 0.18 | 0.00 | 86 | 1007.2 |
| 20260506085415 | 53 | 164 | 0.9 | 7.0 | 0.00 | 0.18 | 0.00 | 86 | 1007.1 |
| 20260506084915 | 53 | 299 | 2.6 | 6.1 | 0.00 | 0.18 | 0.00 | 86 | 1007.0 |
| 20260506084421 | 53 | 262 | 3.5 | 7.0 | 0.00 | 0.18 | 0.00 | 86 | 1006.9 |
| 20260506084415 | 53 | 262 | 3.5 | 7.0 | 0.00 | 0.18 | 0.00 | 86 | 1006.9 |
| 20260506083915 | 53 | 268 | 3.5 | 6.1 | 0.00 | 0.18 | 0.00 | 86 | 1006.9 |
| 20260506083415 | 52 | 243 | 3.5 | 7.8 | 0.00 | 0.18 | 0.00 | 86 | 1006.8 |
| 20260506082920 | 52 | 271 | 4.3 | 7.0 | 0.00 | 0.18 | 0.00 | 86 | 1006.7 |
| 20260506082916 | 52 | 271 | 4.3 | 7.0 | 0.00 | 0.18 | 0.00 | 86 | 1006.7 |
| 20260506082415 | 52 | 253 | 3.5 | 5.2 | 0.00 | 0.18 | 0.00 | 86 | 1006.7 |
| 20260506081915 | 53 | 264 | 2.6 | 5.2 | 0.00 | 0.18 | 0.00 | 86 | 1006.7 |
| 20260506081418 | 53 | 306 | 1.7 | 5.2 | 0.00 | 0.18 | 0.00 | 86 | 1006.6 |
| 20260506081416 | 53 | 306 | 1.7 | 5.2 | 0.00 | 0.18 | 0.00 | 86 | 1006.6 |
| 20260506080916 | 52 | 268 | 4.3 | 5.2 | 0.00 | 0.18 | 0.00 | 86 | 1006.6 |
| 20260506080416 | 52 | 254 | 2.6 | 6.1 | 0.00 | 0.18 | 0.00 | 87 | 1006.6 |
| 20260506073416 | 52 | 234 | 2.6 | 5.2 | 0.00 | 0.18 | 0.00 | 89 | 1006.7 |
| 20260506072919 | 52 | 223 | 3.5 | 5.2 | 0.00 | 0.18 | 0.00 | 90 | 1006.7 |
| 20260506072916 | 52 | 223 | 3.5 | 5.2 | 0.00 | 0.18 | 0.00 | 90 | 1006.7 |
| 20260506072416 | 52 | 241 | 0.9 | 3.5 | 0.00 | 0.18 | 0.00 | 90 | 1006.7 |
| 20260506071916 | 51 | 268 | 1.7 | 5.2 | 0.00 | 0.18 | 0.00 | 90 | 1006.6 |
| 20260506071421 | 51 | 196 | 1.7 | 4.3 | 0.00 | 0.18 | 0.00 | 90 | 1006.7 |
| 20260506071416 | 51 | 196 | 1.7 | 4.3 | 0.00 | 0.18 | 0.00 | 90 | 1006.7 |
| 20260506070916 | 51 | 171 | 0.0 | 5.2 | 0.00 | 0.18 | 0.00 | 91 | 1006.7 |
| 20260506070416 | 51 | 203 | 0.9 | 3.5 | 0.00 | 0.18 | 0.00 | 91 | 1006.7 |
| 20260506062416 | 51 | 257 | 0.0 | 4.3 | 0.00 | 0.19 | 0.00 | 91 | 1006.8 |
| 20260506061916 | 51 | 289 | 3.5 | 3.5 | 0.00 | 0.19 | 0.00 | 91 | 1006.7 |
| 20260506061420 | 51 | 181 | 0.0 | 3.5 | 0.00 | 0.19 | 0.00 | 90 | 1006.8 |
| 20260506061416 | 51 | 181 | 0.0 | 3.5 | 0.00 | 0.19 | 0.00 | 90 | 1006.8 |
| 20260506060916 | 51 | 298 | 0.0 | 3.5 | 0.00 | 0.19 | 0.00 | 90 | 1006.7 |
| 20260506060416 | 51 | 255 | 2.6 | 4.3 | 0.00 | 0.19 | 0.00 | 90 | 1006.7 |
| 20260506051416 | 50 | 254 | 2.6 | 4.3 | 0.00 | 0.19 | 0.00 | 89 | 1006.7 |
| 20260506050916 | 50 | 265 | 2.6 | 4.3 | 0.00 | 0.19 | 0.00 | 89 | 1006.8 |
| 20260506050416 | 50 | 254 | 2.6 | 5.2 | 0.00 | 0.19 | 0.00 | 89 | 1006.7 |
| 20260506044916 | 50 | 237 | 2.6 | 2.6 | 0.00 | 0.19 | 0.00 | 91 | 1006.7 |
| 20260506044420 | 50 | 239 | 0.9 | 0.9 | 0.00 | 0.19 | 0.00 | 92 | 1006.7 |
| 20260506044416 | 50 | 239 | 0.9 | 0.9 | 0.00 | 0.19 | 0.00 | 92 | 1006.7 |
| 20260506043916 | 50 | 222 | 0.0 | 0.9 | 0.00 | 0.19 | 0.00 | 92 | 1006.7 |
| 20260506043416 | 50 | 215 | 0.0 | 3.5 | 0.00 | 0.19 | 0.00 | 92 | 1006.6 |
| 20260506042919 | 50 | 261 | 2.6 | 2.6 | 0.00 | 0.21 | 0.00 | 92 | 1006.6 |
| 20260506042916 | 50 | 261 | 2.6 | 2.6 | 0.00 | 0.21 | 0.00 | 92 | 1006.6 |
| 20260506042416 | 50 | 146 | 0.0 | 0.0 | 0.00 | 0.21 | 0.00 | 93 | 1006.6 |
| 20260506041916 | 50 | 146 | 0.0 | 0.0 | 0.00 | 0.21 | 0.00 | 93 | 1006.6 |
| 20260506041420 | 50 | 146 | 0.0 | 0.0 | 0.00 | 0.21 | 0.00 | 93 | 1006.6 |
| 20260506041416 | 50 | 146 | 0.0 | 0.0 | 0.00 | 0.21 | 0.00 | 93 | 1006.6 |
| 20260506040916 | 50 | 146 | 0.0 | 2.6 | 0.00 | 0.21 | 0.00 | 94 | 1006.6 |
| 20260506040416 | 50 | 260 | 0.0 | 4.3 | 0.00 | 0.21 | 0.00 | 94 | 1006.6 |
| 20260506035919 | 50 | 277 | 0.0 | 0.0 | 0.00 | 0.21 | 0.00 | 95 | 1006.6 |
| 20260506035916 | 50 | 277 | 0.0 | 0.0 | 0.00 | 0.21 | 0.00 | 95 | 1006.6 |
| 20260506035416 | 50 | 277 | 0.0 | 1.7 | 0.00 | 0.21 | 0.00 | 95 | 1006.7 |
| 20260506034916 | 50 | 255 | 0.0 | 3.5 | 0.00 | 0.21 | 0.00 | 95 | 1006.7 |
| 20260506034416 | 50 | 222 | 1.7 | 3.5 | 0.00 | 0.21 | 0.00 | 95 | 1006.8 |
| 20260506033916 | 50 | 233 | 1.7 | 1.7 | 0.00 | 0.21 | 0.00 | 95 | 1007.0 |
| 20260506033416 | 50 | 180 | 0.0 | 4.3 | 0.00 | 0.21 | 0.00 | 95 | 1007.0 |
| 20260506032916 | 50 | 202 | 0.0 | 3.5 | 0.00 | 0.24 | 0.00 | 95 | 1007.1 |
| 20260506032416 | 50 | 223 | 0.9 | 6.1 | 0.00 | 0.24 | 0.00 | 95 | 1007.0 |
| 20260506031916 | 50 | 285 | 2.6 | 7.0 | 0.00 | 0.24 | 0.00 | 95 | 1007.0 |
| 20260506031416 | 49 | 254 | 4.3 | 7.0 | 0.00 | 0.24 | 0.00 | 95 | 1007.1 |
| 20260506030916 | 49 | 177 | 0.0 | 5.2 | 0.00 | 0.24 | 0.00 | 95 | 1007.2 |
| 20260506030417 | 49 | 216 | 3.5 | 5.2 | 0.00 | 0.24 | 0.00 | 95 | 1007.2 |
| 20260506025916 | 49 | 247 | 3.5 | 6.1 | 0.00 | 0.24 | 0.00 | 95 | 1007.2 |
| 20260506025416 | 49 | 254 | 3.5 | 6.1 | 0.00 | 0.24 | 0.00 | 95 | 1007.3 |
| 20260506024916 | 49 | 164 | 0.9 | 6.1 | 0.00 | 0.24 | 0.00 | 95 | 1007.3 |
| 20260506024416 | 50 | 230 | 4.3 | 4.3 | 0.00 | 0.24 | 0.00 | 95 | 1007.3 |
| 20260506023916 | 50 | 194 | 2.6 | 7.0 | 0.00 | 0.24 | 0.00 | 94 | 1007.3 |
| 20260506023416 | 50 | 196 | 5.2 | 7.8 | 0.00 | 0.24 | 0.00 | 94 | 1007.4 |
| 20260506022916 | 50 | 205 | 4.3 | 7.0 | 0.00 | 0.24 | 0.00 | 94 | 1007.4 |
| 20260506022416 | 50 | 267 | 6.1 | 8.7 | 0.00 | 0.24 | 0.00 | 94 | 1007.4 |
| 20260506021916 | 50 | 260 | 4.3 | 7.0 | 0.00 | 0.24 | 0.00 | 94 | 1007.4 |
| 20260506021416 | 50 | 225 | 3.5 | 7.0 | 0.00 | 0.24 | 0.00 | 94 | 1007.5 |
| 20260506020916 | 50 | 196 | 0.0 | 5.2 | 0.00 | 0.24 | 0.00 | 94 | 1007.5 |
| 20260506020416 | 50 | 243 | 2.6 | 2.6 | 0.00 | 0.24 | 0.00 | 93 | 1007.4 |
| 20260506015916 | 50 | 234 | 0.0 | 5.2 | 0.00 | 0.24 | 0.00 | 93 | 1007.4 |
| 20260506015416 | 50 | 230 | 5.2 | 6.1 | 0.00 | 0.24 | 0.00 | 93 | 1007.6 |
| 20260506014916 | 50 | 278 | 0.0 | 4.3 | 0.00 | 0.24 | 0.00 | 93 | 1007.6 |
| 20260506014416 | 50 | 241 | 2.6 | 5.2 | 0.00 | 0.24 | 0.00 | 93 | 1007.7 |
| 20260506013916 | 51 | 208 | 1.7 | 6.1 | 0.00 | 0.24 | 0.00 | 93 | 1007.8 |
| 20260506013416 | 51 | 230 | 3.5 | 11.3 | 0.00 | 0.24 | 0.00 | 92 | 1008.0 |
| 20260506012916 | 51 | 254 | 5.2 | 7.8 | 0.00 | 0.24 | 0.00 | 92 | 1008.1 |
| 20260506012416 | 51 | 258 | 7.8 | 7.8 | 0.00 | 0.24 | 0.00 | 92 | 1008.2 |
| 20260506011916 | 51 | 250 | 7.0 | 7.8 | 0.00 | 0.24 | 0.00 | 91 | 1008.3 |
| 20260506011416 | 51 | 265 | 4.3 | 7.0 | 0.00 | 0.24 | 0.00 | 90 | 1008.4 |
| 20260506010916 | 51 | 170 | 0.0 | 10.4 | 0.00 | 0.24 | 0.00 | 90 | 1008.4 |
| 20260506010416 | 51 | 222 | 1.7 | 9.6 | 0.00 | 0.24 | 0.00 | 89 | 1008.4 |
| 20260506005916 | 51 | 251 | 4.3 | 6.1 | 0.00 | 0.24 | 0.00 | 88 | 1008.5 |
| 20260506005417 | 51 | 215 | 3.5 | 5.2 | 0.00 | 0.24 | 0.00 | 87 | 1008.5 |
| 20260506004917 | 51 | 213 | 0.0 | 5.2 | 0.00 | 0.24 | 0.00 | 86 | 1008.5 |
| 20260506004417 | 51 | 274 | 2.6 | 6.1 | 0.00 | 0.24 | 0.00 | 86 | 1008.4 |
| 20260506003916 | 51 | 258 | 3.5 | 5.2 | 0.00 | 0.24 | 0.00 | 85 | 1008.5 |
| 20260506003417 | 51 | 253 | 3.5 | 6.1 | 0.00 | 0.24 | 0.00 | 85 | 1008.4 |
| 20260506002917 | 51 | 289 | 0.9 | 7.0 | 0.00 | 0.24 | 0.00 | 85 | 1008.4 |
| 20260506002417 | 51 | 227 | 1.7 | 7.8 | 0.00 | 0.24 | 0.00 | 85 | 1008.3 |
| 20260506001917 | 51 | 251 | 7.0 | 7.0 | 0.00 | 0.24 | 0.00 | 85 | 1008.3 |
| 20260506001417 | 51 | 258 | 5.2 | 7.0 | 0.00 | 0.24 | 0.00 | 85 | 1008.3 |
| 20260506000917 | 51 | 260 | 4.3 | 6.1 | 0.00 | 0.24 | 0.00 | 84 | 1008.4 |
| 20260506000417 | 51 | 251 | 2.6 | 6.1 | 0.00 | 0.24 | 0.00 | 84 | 1008.5 |
| 20260505235917 | 52 | 236 | 3.5 | 10.4 | 0.00 | 0.24 | 0.00 | 83 | 1008.5 |
| 20260505235417 | 52 | 285 | 1.7 | 7.0 | 0.00 | 0.24 | 0.00 | 81 | 1008.6 |
| 20260505234917 | 52 | 248 | 4.3 | 6.1 | 0.00 | 0.24 | 0.00 | 81 | 1008.7 |
| 20260505234417 | 52 | 267 | 4.3 | 7.8 | 0.00 | 0.24 | 0.00 | 81 | 1008.7 |
| 20260505233917 | 52 | 232 | 3.5 | 7.0 | 0.00 | 0.24 | 0.00 | 81 | 1008.7 |
| 20260505233417 | 52 | 275 | 2.6 | 7.8 | 0.00 | 0.24 | 0.00 | 82 | 1008.7 |
| 20260505232917 | 51 | 251 | 2.6 | 6.1 | 0.00 | 0.24 | 0.00 | 82 | 1008.8 |
| 20260505232417 | 52 | 248 | 5.2 | 6.1 | 0.00 | 0.24 | 0.00 | 82 | 1008.8 |
| 20260505231917 | 52 | 279 | 4.3 | 8.7 | 0.00 | 0.24 | 0.00 | 81 | 1008.8 |
| 20260505231417 | 52 | 210 | 2.6 | 7.8 | 0.00 | 0.24 | 0.00 | 81 | 1008.9 |
| 20260505230917 | 51 | 281 | 3.5 | 5.2 | 0.00 | 0.24 | 0.00 | 81 | 1008.8 |
| 20260505230417 | 51 | 233 | 1.7 | 7.8 | 0.00 | 0.24 | 0.00 | 82 | 1008.9 |
| 20260505225917 | 51 | 240 | 4.3 | 7.0 | 0.00 | 0.24 | 0.00 | 83 | 1008.8 |
| 20260505225417 | 51 | 187 | 2.6 | 5.2 | 0.00 | 0.24 | 0.00 | 82 | 1008.9 |
| 20260505224917 | 51 | 250 | 4.3 | 7.8 | 0.00 | 0.24 | 0.00 | 82 | 1008.8 |
| 20260505224417 | 52 | 174 | 2.6 | 5.2 | 0.00 | 0.24 | 0.00 | 81 | 1008.9 |
| 20260505223917 | 52 | 220 | 2.6 | 7.8 | 0.00 | 0.24 | 0.00 | 81 | 1008.9 |
| 20260505223417 | 52 | 226 | 6.1 | 7.8 | 0.00 | 0.24 | 0.00 | 81 | 1008.9 |
| 20260505222917 | 52 | 212 | 3.5 | 8.7 | 0.00 | 0.24 | 0.00 | 81 | 1008.9 |
| 20260505222417 | 52 | 254 | 7.8 | 7.8 | 0.00 | 0.24 | 0.00 | 80 | 1008.9 |
| 20260505221917 | 52 | 274 | 5.2 | 7.0 | 0.00 | 0.24 | 0.00 | 79 | 1008.9 |
| 20260505221421 | 52 | 271 | 5.2 | 8.7 | 0.00 | 0.24 | 0.00 | 78 | 1009.0 |
| 20260505221417 | 52 | 271 | 5.2 | 8.7 | 0.00 | 0.24 | 0.00 | 78 | 1009.0 |
| 20260505220917 | 52 | 260 | 7.0 | 8.7 | 0.00 | 0.24 | 0.00 | 78 | 1008.9 |
| 20260505220417 | 52 | 253 | 6.1 | 9.6 | 0.00 | 0.24 | 0.00 | 78 | 1008.8 |
| 20260505215920 | 52 | 243 | 6.1 | 11.3 | 0.00 | 0.24 | 0.00 | 79 | 1008.8 |
| 20260505215917 | 52 | 243 | 6.1 | 11.3 | 0.00 | 0.24 | 0.00 | 79 | 1008.8 |
| 20260505215417 | 52 | 236 | 4.3 | 5.2 | 0.00 | 0.24 | 0.24 | 81 | 1008.9 |
| 20260505214917 | 52 | 203 | 2.6 | 6.1 | 0.00 | 0.24 | 0.24 | 80 | 1008.8 |
| 20260505214422 | 52 | 275 | 0.9 | 3.5 | 0.00 | 0.24 | 0.24 | 80 | 1008.9 |
| 20260505214417 | 52 | 275 | 0.9 | 3.5 | 0.00 | 0.24 | 0.24 | 80 | 1008.9 |
| 20260505213917 | 52 | 220 | 3.5 | 7.8 | 0.00 | 0.24 | 0.24 | 80 | 1008.8 |
| 20260505213417 | 52 | 239 | 5.2 | 7.8 | 0.00 | 0.24 | 0.24 | 82 | 1008.8 |
| 20260505212920 | 51 | 223 | 0.0 | 2.6 | 0.00 | 0.24 | 0.24 | 82 | 1008.8 |
| 20260505212917 | 51 | 223 | 0.0 | 2.6 | 0.00 | 0.24 | 0.24 | 82 | 1008.8 |
| 20260505212417 | 52 | 296 | 0.9 | 0.9 | 0.00 | 0.24 | 0.24 | 81 | 1008.8 |
| 20260505211917 | 52 | 254 | 0.0 | 3.5 | 0.00 | 0.24 | 0.24 | 81 | 1008.9 |
| 20260505211417 | 52 | 243 | 2.6 | 4.3 | 0.00 | 0.24 | 0.24 | 81 | 1009.0 |
| 20260505210917 | 52 | 237 | 1.7 | 8.7 | 0.00 | 0.24 | 0.24 | 81 | 1008.9 |
| 20260505210417 | 52 | 196 | 2.6 | 7.8 | 0.00 | 0.24 | 0.24 | 82 | 1008.9 |
| 20260505205920 | 52 | 262 | 7.0 | 7.8 | 0.00 | 0.24 | 0.24 | 82 | 1008.9 |
| 20260505205917 | 52 | 262 | 7.0 | 7.8 | 0.00 | 0.24 | 0.24 | 82 | 1008.9 |
| 20260505205417 | 52 | 220 | 1.7 | 3.5 | 0.00 | 0.24 | 0.24 | 81 | 1008.9 |
| 20260505204917 | 53 | 185 | 2.6 | 7.8 | 0.00 | 0.24 | 0.24 | 81 | 1008.9 |
| 20260505204421 | 53 | 203 | 2.6 | 7.0 | 0.00 | 0.24 | 0.24 | 80 | 1008.9 |
| 20260505204417 | 53 | 203 | 2.6 | 7.0 | 0.00 | 0.24 | 0.24 | 80 | 1008.9 |
| 20260505203917 | 53 | 233 | 6.1 | 10.4 | 0.00 | 0.24 | 0.24 | 80 | 1008.8 |
| 20260505203417 | 53 | 210 | 4.3 | 7.0 | 0.00 | 0.24 | 0.24 | 81 | 1008.8 |
| 20260505202917 | 53 | 222 | 3.5 | 7.8 | 0.00 | 0.24 | 0.24 | 81 | 1008.7 |
| 20260505202417 | 53 | 268 | 5.2 | 8.7 | 0.00 | 0.24 | 0.24 | 80 | 1008.8 |
| 20260505201917 | 52 | 254 | 5.2 | 10.4 | 0.00 | 0.24 | 0.24 | 82 | 1008.8 |
| 20260505201420 | 52 | 275 | 6.1 | 7.0 | 0.00 | 0.24 | 0.24 | 84 | 1008.8 |
| 20260505201417 | 52 | 275 | 6.1 | 7.0 | 0.00 | 0.24 | 0.24 | 84 | 1008.8 |
| 20260505200917 | 51 | 296 | 1.7 | 5.2 | 0.00 | 0.24 | 0.24 | 86 | 1008.8 |
| 20260505200417 | 51 | 215 | 0.0 | 4.3 | 0.00 | 0.24 | 0.24 | 87 | 1008.8 |
| 20260505195921 | 51 | 209 | 0.0 | 0.9 | 0.00 | 0.24 | 0.24 | 86 | 1008.7 |
| 20260505195917 | 51 | 209 | 0.0 | 0.9 | 0.00 | 0.24 | 0.24 | 86 | 1008.7 |
| 20260505195417 | 51 | 251 | 0.9 | 3.5 | 0.00 | 0.24 | 0.24 | 86 | 1008.7 |
| 20260505194917 | 51 | 244 | 0.9 | 5.2 | 0.00 | 0.24 | 0.24 | 86 | 1008.6 |
| 20260505194422 | 52 | 167 | 2.6 | 5.2 | 0.00 | 0.24 | 0.24 | 86 | 1008.5 |
| 20260505194417 | 52 | 167 | 2.6 | 5.2 | 0.00 | 0.24 | 0.24 | 86 | 1008.5 |
| 20260505193917 | 52 | 203 | 3.5 | 6.1 | 0.00 | 0.24 | 0.24 | 86 | 1008.4 |
| 20260505193417 | 52 | 198 | 2.6 | 3.5 | 0.00 | 0.24 | 0.24 | 85 | 1008.4 |
| 20260505192922 | 52 | 189 | 1.7 | 2.6 | 0.00 | 0.24 | 0.24 | 84 | 1008.4 |
| 20260505192918 | 52 | 189 | 1.7 | 2.6 | 0.00 | 0.24 | 0.24 | 84 | 1008.4 |
| 20260505192417 | 53 | 220 | 2.6 | 4.3 | 0.00 | 0.24 | 0.24 | 83 | 1008.4 |
| 20260505191917 | 53 | 168 | 2.6 | 13.0 | 0.00 | 0.24 | 0.24 | 83 | 1008.5 |
| 20260505191417 | 53 | 209 | 9.6 | 12.2 | 0.00 | 0.24 | 0.24 | 83 | 1008.5 |
| 20260505190917 | 53 | 217 | 2.6 | 6.1 | 0.00 | 0.24 | 0.24 | 83 | 1008.5 |
| 20260505190417 | 53 | 254 | 2.6 | 8.7 | 0.00 | 0.24 | 0.24 | 82 | 1008.4 |
| 20260505185920 | 53 | 217 | 6.1 | 8.7 | 0.00 | 0.24 | 0.24 | 82 | 1008.4 |
| 20260505185917 | 53 | 217 | 6.1 | 8.7 | 0.00 | 0.24 | 0.24 | 82 | 1008.4 |
| 20260505185417 | 53 | 140 | 1.7 | 13.0 | 0.00 | 0.24 | 0.24 | 82 | 1008.4 |